FW2284 Weather Reports


Display with metric or nautical units.
time (UTC)temp
F
wind
direction
speed
MPH
gust
MPH
rain 1hr
in
rain 24hr
in
rain mn
in
humidity
%
barometer
mb
20260505090048 60 356 4.0 9.0 0.00 0.10 0.00 82 1006.3
20260505084551 61 327 3.0 5.0 0.00 0.10 0.00 78 1005.6
20260505083050 61 33 0.0 0.0 0.00 0.10 0.00 75 1005.2
20260505081546 62 89 0.0 2.0 0.00 0.10 0.00 72 1004.8
20260505080036 63 139 0.0 2.0 0.00 0.10 0.00 68 1005.0
20260505074533 64 65 1.0 3.0 0.00 0.10 0.00 66 1005.2
20260505073033 64 22 2.0 7.0 0.00 0.10 0.00 64 1005.5
20260505071529 65 319 0.0 4.0 0.00 0.10 0.00 63 1005.9
20260505070033 66 321 2.0 10.0 0.00 0.10 0.00 61 1005.6
20260505064521 68 350 4.0 17.0 0.00 0.10 0.00 60 1005.8
20260505063017 69 227 4.0 14.0 0.00 0.10 0.00 62 1004.5
20260505061519 69 215 6.0 11.0 0.00 0.10 0.00 61 1004.3
20260505060011 69 233 3.0 14.0 0.00 0.10 0.00 60 1004.2
20260505054509 70 201 4.0 10.0 0.00 0.10 0.00 59 1004.1
20260505053006 70 229 4.0 11.0 0.00 0.10 0.00 59 1004.0
20260505051503 70 218 8.0 18.0 0.00 0.10 0.00 59 1003.7
20260505050109 70 182 5.0 15.0 0.00 0.10 0.00 59 1003.4
20260505041558 71 212 6.0 18.0 0.00 0.10 0.10 57 1003.1
20260505040059 71 235 6.0 14.0 0.00 0.10 0.10 58 1003.2
20260505034616 71 234 6.0 11.0 0.00 0.10 0.10 57 1003.7
20260505033058 71 202 3.0 12.0 0.00 0.10 0.10 57 1003.8
20260505031556 72 226 4.0 9.0 0.00 0.10 0.10 56 1003.8
20260505030055 73 174 4.0 8.0 0.00 0.10 0.10 56 1003.7
20260505024555 73 248 3.0 9.0 0.00 0.10 0.10 56 1003.4
20260505023058 73 266 2.0 6.0 0.00 0.10 0.10 56 1003.4
20260505021554 72 242 2.0 8.0 0.00 0.10 0.10 56 1003.0
20260505020057 72 160 2.0 7.0 0.00 0.10 0.10 57 1002.6
20260505014553 72 198 1.0 4.0 0.00 0.10 0.10 58 1002.3
20260505013053 72 262 0.0 4.0 0.00 0.10 0.10 57 1002.2
20260505011608 72 209 2.0 5.0 0.00 0.10 0.10 58 1002.0
20260505010051 73 177 1.0 3.0 0.00 0.10 0.10 56 1002.1
20260505004555 74 231 1.0 4.0 0.00 0.10 0.10 53 1001.9
20260505003053 76 219 0.0 6.0 0.00 0.10 0.10 51 1001.8
20260505001603 77 253 2.0 4.0 0.00 0.10 0.10 48 1001.8
20260505000104 78 207 3.0 9.0 0.00 0.10 0.10 47 1001.8
20260504234545 78 221 2.0 8.0 0.00 0.10 0.10 49 1001.8
20260504233102 80 242 2.0 7.0 0.00 0.10 0.10 48 1001.9
20260504231542 79 209 3.0 7.0 0.00 0.10 0.10 49 1001.9
20260504230042 81 203 4.0 8.0 0.00 0.10 0.10 45 1002.0
20260504224543 81 165 7.0 13.0 0.00 0.10 0.10 42 1002.1
20260504223040 82 214 5.0 19.0 0.00 0.10 0.10 42 1002.1
20260504221538 81 190 8.0 16.0 0.00 0.10 0.10 44 1002.2
20260504220036 81 214 7.0 15.0 0.00 0.10 0.10 43 1002.1
20260504214534 80 186 3.0 13.0 0.00 0.10 0.10 47 1002.2
20260504213034 80 270 7.0 16.0 0.00 0.10 0.10 48 1002.2
20260504211530 80 139 5.0 12.0 0.00 0.10 0.10 48 1002.3
20260504210028 80 206 8.0 21.0 0.00 0.10 0.10 46 1002.3
20260504204526 79 224 7.0 15.0 0.00 0.10 0.10 49 1002.3
20260504203022 78 249 8.0 17.0 0.00 0.10 0.10 52 1002.5
20260504201518 77 156 6.0 14.0 0.00 0.10 0.10 59 1002.6
20260504200017 77 147 6.0 9.0 0.00 0.10 0.10 59 1002.9
20260504194513 74 205 5.0 11.0 0.00 0.10 0.10 65 1003.2
20260504193009 73 200 2.0 10.0 0.00 0.10 0.10 65 1003.5
20260504191507 71 159 5.0 9.0 0.00 0.10 0.10 68 1003.7
20260504190002 68 188 4.0 9.0 0.00 0.10 0.10 77 1004.0
20260504184600 64 179 6.0 10.0 0.00 0.10 0.10 78 1003.2
20260504183057 65 136 4.0 7.0 0.00 0.10 0.10 75 1004.1
20260504181559 66 226 2.0 6.0 0.00 0.10 0.10 73 1004.9
20260504180055 65 162 4.0 7.0 0.00 0.10 0.10 74 1004.5
20260504174554 65 139 3.0 6.0 0.00 0.10 0.10 76 1004.6
20260504173052 64 167 3.0 7.0 0.00 0.10 0.10 77 1004.8
20260504171553 63 172 2.0 9.0 0.00 0.10 0.10 81 1005.1